Tulsa, OK

6:39 PM CST on January 21, 2017 (GMT -0600)
Tulsa International Airport

Weather History for KTUL - December, 2011

Change the Weather History Date:

Tuesday, December 27, 2011

  Actual Average Record
Temperature  
Mean Temperature 43 °F 38 °F  
Max Temperature 55 °F 47 °F 77 °F (1946)
Min Temperature 31 °F 28 °F 8 °F (1925)
Degree Days  
Heating Degree Days 22 27  
Month to date heating degree days 634 682  
Since 1 July heating degree days 1211 1318  
Moisture  
Dew Point 26 °F    
Average Humidity 55    
Maximum Humidity 85    
Minimum Humidity 24    
Precipitation  
Precipitation 0.00 in 0.07 in 2.76 in (2015)
Month to date precipitation 1.45 2.23  
Year to date precipitation 31.99 40.71  
Sea Level Pressure  
Sea Level Pressure 30.11 in    
Wind  
Wind Speed 9 mph (WNW)    
Max Wind Speed 23 mph    
Max Gust Speed 26 mph    
Visibility 10 miles    
Events      
T = Trace of Precipitation, MM = Missing Value Source: NWS Daily Summary

Daily Weather History Graph

Daily Weather History Graph

Search for Another Location

Airport or City:

Trip Planner

Search our weather history database for the weather conditions in past years. The results will help you decide how hot, cold, wet, or windy it might be!

Date:

Astronomy

Dec. 27, 2011 Rise Set
Actual Time 7:33 AM CST 5:15 PM CST
Civil Twilight 7:04 AM CST 5:44 PM CST
Nautical Twilight 6:32 AM CST 6:16 PM CST
Astronomical Twilight 6:01 AM CST 6:48 PM CST
Moon 9:34 AM CST (12/27) 8:44 PM CST (12/27)
Length of Visible Light 10h 39m
Length of Day
9h 42m
Waxing Crescent, 11% of the Moon is Illuminated
Dec 27
Waxing Crescent
Jan 1
First Quarter
Jan 9
Full
Jan 16
Last Quarter
Jan 23
New

Hourly Weather History & Observations

Time (CST) Temp. Windchill Dew Point Humidity Pressure Visibility Wind Dir Wind Speed Gust Speed Precip Events Conditions
12:53 AM 39.9 °F 33.9 °F 35.1 °F 83% 29.99 in 10.0 mi WNW 9.2 mph - N/A   Clear
1:53 AM 39.0 °F 32.8 °F 35.1 °F 86% 29.99 in 10.0 mi WNW 9.2 mph - N/A   Clear
2:53 AM 37.9 °F 31.5 °F 34.0 °F 86% 30.00 in 10.0 mi WNW 9.2 mph - N/A   Clear
3:53 AM 37.9 °F 30.0 °F 32.0 °F 79% 30.01 in 10.0 mi West 12.7 mph - N/A   Clear
4:53 AM 36.0 °F 28.5 °F 30.0 °F 79% 30.04 in 10.0 mi West 10.4 mph - N/A   Clear
5:53 AM 37.0 °F 28.9 °F 28.9 °F 73% 30.07 in 10.0 mi WNW 12.7 mph - N/A   Clear
6:53 AM 37.0 °F 29.8 °F 28.0 °F 70% 30.10 in 10.0 mi WNW 10.4 mph - N/A   Clear
7:53 AM 37.0 °F 28.9 °F 28.0 °F 70% 30.12 in 10.0 mi WNW 12.7 mph - N/A   Partly Cloudy
8:53 AM 39.0 °F 31.0 °F 28.0 °F 65% 30.15 in 10.0 mi NW 13.8 mph - N/A   Partly Cloudy
9:53 AM 44.1 °F 38.1 °F 28.0 °F 53% 30.17 in 10.0 mi NW 11.5 mph - N/A   Clear
10:53 AM 48.0 °F - 26.1 °F 42% 30.18 in 10.0 mi NW 12.7 mph - N/A   Clear
11:53 AM 52.0 °F - 25.0 °F 35% 30.16 in 10.0 mi WNW 10.4 mph - N/A   Clear
12:53 PM 54.0 °F - 21.0 °F 28% 30.13 in 10.0 mi NW 13.8 mph - N/A   Clear
1:53 PM 55.0 °F - 19.0 °F 24% 30.12 in 10.0 mi NNW 15.0 mph 26.5 mph N/A   Clear
2:53 PM 55.0 °F - 19.9 °F 25% 30.10 in 10.0 mi NW 12.7 mph 19.6 mph N/A   Clear
3:53 PM 54.0 °F - 19.9 °F 26% 30.11 in 10.0 mi WNW 11.5 mph - N/A   Clear
4:53 PM 50.0 °F - 21.2 °F 32% 30.13 in 10.0 mi WNW 9.2 mph - N/A   Clear
5:53 PM 45.0 °F 42.6 °F 21.0 °F 39% 30.14 in 10.0 mi West 4.6 mph - N/A   Clear
6:53 PM 41.0 °F 36.4 °F 21.2 °F 45% 30.16 in 10.0 mi West 6.9 mph - N/A   Clear
7:53 PM 39.9 °F 35.8 °F 21.9 °F 49% 30.17 in 10.0 mi West 5.8 mph - N/A   Clear
8:53 PM 37.0 °F - 23.0 °F 57% 30.16 in 10.0 mi Calm Calm - N/A   Clear
9:53 PM 35.1 °F - 23.0 °F 61% 30.14 in 10.0 mi Calm Calm - N/A   Clear
10:53 PM 37.9 °F - 24.1 °F 57% 30.18 in 10.0 mi Calm Calm - N/A   Clear
11:53 PM 30.9 °F - 24.1 °F 76% 30.17 in 10.0 mi Calm Calm - N/A   Clear